Date String (YYYY-MM-DD hh:mm:ss) UTC,Instrument flags,Ambient pressure (hPa),Sample flow (lpm),Bypass flow (lpm),Sample temperature (°C),Ambient temperature (°C),ASC tube jacket temperature (°C),LED temperature (°C),Box temperature (°C),Sample RH (%),Span deviation,Mass concentration (μg/m³),Mass concentration (μg/m³),Mass concentration (μg/m³)
DateTimeUTC,F1_M11,P_M11,Q1_M11,Q2_M11,T1_M11,T2_M11,T3_M11,T4_M11,T5_M11,U1_M11,ZSPAN_M11,X0_M11,X2_M11,X1_M11
2023-02-28 12:00:00,,0811.0,5.00,0.00,22.2,21.1,00.0,31.0,23.7,08.5,0000.0,0002.60,0000.81,0000.49
2023-02-28 12:01:00,,0811.0,5.00,0.00,22.1,20.7,00.0,30.9,23.5,08.5,0000.0,0002.61,0000.83,0000.50
2023-02-28 12:02:00,,0810.9,5.00,0.00,22.0,20.5,00.0,30.9,23.4,08.5,0000.0,0002.68,0000.87,0000.51
2023-02-28 12:03:00,,0810.9,5.02,0.00,22.0,20.2,00.0,30.9,23.4,08.4,0000.0,0001.98,0000.92,0000.51
2023-02-28 12:04:00,,0811.0,5.00,0.00,21.9,20.0,00.0,30.9,23.3,08.3,0000.0,0001.84,0000.92,0000.51
2023-02-28 12:05:00,,0811.0,5.04,0.00,21.8,19.9,00.0,30.8,23.2,08.3,0000.0,0001.82,0000.93,0000.52
2023-02-28 12:06:00,,0811.0,5.00,0.00,21.8,19.9,00.0,30.8,23.2,08.2,0000.0,0001.62,0000.88,0000.51
2023-02-28 12:07:00,,0811.0,5.01,0.00,21.8,19.9,00.0,30.8,23.3,08.2,0000.0,0001.60,0000.87,0000.51
2023-02-28 12:08:00,,0811.0,5.00,0.00,21.8,20.3,00.0,30.8,23.4,08.2,0000.0,0001.61,0000.89,0000.52
2023-02-28 12:09:00,,0811.0,4.99,0.00,21.9,21.7,00.0,30.7,23.8,08.2,0000.0,0001.74,0000.93,0000.52
2023-02-28 12:10:00,,0811.0,4.98,0.00,22.0,22.8,00.0,30.8,24.1,08.1,0000.0,0001.79,0000.97,0000.52
2023-02-28 12:11:00,,0811.0,5.01,0.00,22.2,23.0,00.0,30.8,24.2,08.0,0000.0,0001.80,0000.99,0000.52
2023-02-28 12:12:00,,0810.9,5.01,0.00,22.2,22.4,00.0,30.8,24.1,07.9,0000.0,0001.76,0000.97,0000.51
2023-02-28 12:13:00,,0810.9,5.00,0.00,22.2,21.8,00.0,30.9,24.0,07.9,0000.0,0001.72,0000.94,0000.51
2023-02-28 12:14:00,,0810.9,5.00,0.00,22.2,21.5,00.0,30.9,23.9,07.9,0000.0,0001.64,0000.91,0000.52
2023-02-28 12:15:00,,0810.8,5.02,0.00,22.2,21.2,00.0,30.9,23.9,07.9,0000.0,0001.58,0000.88,0000.52
2023-02-28 12:16:00,,0810.8,5.00,0.00,22.2,21.0,00.0,30.9,23.9,07.9,0000.0,0001.52,0000.85,0000.51
2023-02-28 12:17:00,,0810.9,5.01,0.00,22.1,20.8,00.0,30.9,23.9,07.9,0000.0,0001.49,0000.85,0000.51
2023-02-28 12:18:00,,0810.8,5.00,0.00,22.1,20.7,00.0,30.9,23.8,07.9,0000.0,0001.55,0000.86,0000.53
2023-02-28 12:19:00,,0810.8,5.01,0.00,22.1,20.7,00.0,30.9,23.8,08.0,0000.0,0001.48,0000.83,0000.52
2023-02-28 12:20:00,,0810.7,4.99,0.00,22.1,20.6,00.0,30.9,23.8,08.1,0000.0,0001.84,0000.78,0000.52
2023-02-28 12:21:00,,0810.7,5.01,0.00,22.1,20.5,00.0,30.9,23.8,08.2,0000.0,0002.26,0000.72,0000.52
2023-02-28 12:22:00,,0810.7,4.99,0.00,22.1,20.5,00.0,30.9,23.8,08.2,0000.0,0002.50,0000.73,0000.52
2023-02-28 12:23:00,,0810.7,5.00,0.00,22.1,20.5,00.0,30.9,23.7,08.3,0000.0,0002.48,0000.71,0000.51
2023-02-28 12:24:00,,0810.6,5.00,0.00,22.1,20.4,00.0,30.9,23.8,08.4,0000.0,0002.52,0000.73,0000.51
2023-02-28 12:25:00,,0810.7,5.00,0.00,22.0,20.4,00.0,30.9,23.7,08.5,0000.0,0002.62,0000.77,0000.50
2023-02-28 12:26:00,,0810.7,5.01,0.00,22.0,20.3,00.0,30.9,23.7,08.5,0000.0,0002.65,0000.79,0000.50
2023-02-28 12:27:00,,0810.7,4.99,0.00,22.0,20.3,00.0,30.8,23.7,08.6,0000.0,0002.67,0000.79,0000.49
2023-02-28 12:28:00,,0810.7,5.00,0.00,22.0,20.4,00.0,30.8,23.7,08.8,0000.0,0002.63,0000.76,0000.48
2023-02-28 12:29:00,,0810.7,5.01,0.00,22.1,21.3,00.0,30.8,23.9,08.7,0000.0,0002.48,0000.72,0000.47
2023-02-28 12:30:00,,0810.7,4.97,0.00,22.2,22.5,00.0,30.8,24.2,08.8,0000.0,0002.51,0000.72,0000.46
2023-02-28 12:31:00,,0810.7,4.97,0.00,22.3,23.0,00.0,30.9,24.3,08.9,0000.0,0002.10,0000.73,0000.47
2023-02-28 12:32:00,,0810.7,5.00,0.00,22.3,22.5,00.0,30.9,24.3,08.9,0000.0,0001.62,0000.72,0000.46
2023-02-28 12:33:00,,0810.6,5.02,0.00,22.3,22.0,00.0,30.9,24.2,09.0,0000.0,0001.24,0000.72,0000.46
2023-02-28 12:34:00,,0810.6,5.00,0.00,22.3,21.6,00.0,31.0,24.1,09.1,0000.0,0001.26,0000.73,0000.47
2023-02-28 12:35:00,,0810.6,5.01,0.00,22.3,21.3,00.0,31.0,24.1,09.0,0000.0,0002.06,0000.71,0000.46
2023-02-28 12:36:00,,0810.7,4.99,0.00,22.3,21.1,00.0,31.0,24.0,09.1,0000.0,0002.01,0000.66,0000.46
2023-02-28 12:37:00,,0810.6,5.00,0.00,22.3,20.9,00.0,31.0,24.0,09.1,0000.0,0002.00,0000.65,0000.46
2023-02-28 12:38:00,,0810.6,5.00,0.00,22.3,20.8,00.0,31.0,23.9,09.1,0000.0,0002.08,0000.67,0000.46
2023-02-28 12:39:00,,0810.6,5.00,0.00,22.2,20.7,00.0,31.0,23.9,09.2,0000.0,0002.09,0000.67,0000.46
2023-02-28 12:40:00,,0810.6,4.99,0.00,22.2,20.7,00.0,31.0,23.9,09.2,0000.0,0002.11,0000.68,0000.45
2023-02-28 12:41:00,,0810.6,4.99,0.00,22.2,20.6,00.0,31.0,23.9,09.3,0000.0,0002.19,0000.68,0000.45
2023-02-28 12:42:00,,0810.5,5.00,0.00,22.2,20.5,00.0,31.0,23.9,09.2,0000.0,0002.29,0000.68,0000.45
2023-02-28 12:43:00,,0810.5,5.00,0.00,22.2,20.5,00.0,31.0,23.8,09.4,0000.0,0002.32,0000.68,0000.44
2023-02-28 12:44:00,,0810.6,4.99,0.00,22.1,20.5,00.0,31.0,23.8,09.6,0000.0,0002.35,0000.66,0000.44
2023-02-28 12:45:00,,0810.6,5.02,0.00,22.1,20.4,00.0,30.9,23.7,09.7,0000.0,0002.48,0000.68,0000.44
2023-02-28 12:46:00,,0810.6,4.99,0.00,22.1,20.3,00.0,30.9,23.7,09.4,0000.0,0001.67,0000.69,0000.44
2023-02-28 12:47:00,,0810.6,5.00,0.00,22.1,20.7,00.0,30.9,23.8,09.4,0000.0,0001.90,0000.73,0000.43
2023-02-28 12:48:00,,0810.6,4.99,0.00,22.2,21.7,00.0,30.9,24.1,09.5,0000.0,0002.02,0000.77,0000.44
2023-02-28 12:49:00,,0810.7,5.01,0.00,22.3,22.7,00.0,30.9,24.3,09.8,0000.0,0001.96,0000.74,0000.44
2023-02-28 12:50:00,,0810.6,5.02,0.00,22.4,22.6,00.0,30.9,24.3,09.6,0000.0,0002.07,0000.77,0000.45
2023-02-28 12:51:00,,0810.6,4.99,0.00,22.3,21.9,00.0,31.0,24.0,09.4,0000.0,0002.10,0000.78,0000.46
2023-02-28 12:52:00,,0810.6,5.01,0.00,22.3,21.4,00.0,31.0,23.9,09.4,0000.0,0001.98,0000.76,0000.46
2023-02-28 12:53:00,,0810.7,5.00,0.00,22.2,20.9,00.0,31.0,23.7,09.3,0000.0,0001.84,0000.74,0000.45
2023-02-28 12:54:00,,0810.8,5.00,0.00,22.1,20.6,00.0,30.9,23.6,09.3,0000.0,0001.88,0000.76,0000.46
2023-02-28 12:55:00,,0810.8,5.00,0.00,22.0,20.3,00.0,30.9,23.4,09.4,0000.0,0001.90,0000.79,0000.46
2023-02-28 12:56:00,,0810.8,5.00,0.00,22.0,20.1,00.0,30.9,23.3,09.5,0000.0,0001.74,0000.76,0000.46
2023-02-28 12:57:00,,0810.7,5.00,0.00,21.9,19.9,00.0,30.8,23.2,09.4,0000.0,0001.71,0000.77,0000.46
2023-02-28 12:58:00,,0810.7,5.01,0.00,21.8,19.7,00.0,30.8,23.2,09.3,0000.0,0001.44,0000.72,0000.46
2023-02-28 12:59:00,,0810.7,5.00,0.00,21.7,19.6,00.0,30.8,23.1,09.2,0000.0,0001.39,0000.72,0000.47
